Time,TemperatureF,DewpointF,PressureIn,WindDirection,WindDirectionDegrees,WindSpeedMPH,WindSpeedGustMPH,Humidity,HourlyPrecipIn,Conditions,Clouds,dailyrainin,SoftwareType,DateUTC
2013-12-25 00:16:00,18.6,15.0,30.52,South,174,4.0,9.0,85,0.00,,,0.00,weatherlink.com 1.10,2013-12-25 05:16:00,
2013-12-25 00:31:00,18.7,15.0,30.51,SSE,168,4.0,10.0,84,0.00,,,0.00,weatherlink.com 1.10,2013-12-25 05:31:00,
2013-12-25 00:46:00,18.8,15.0,30.50,SSE,154,7.0,10.0,85,0.00,,,0.00,weatherlink.com 1.10,2013-12-25 05:46:00,
2013-12-25 01:02:00,19.0,15.0,30.50,SSE,149,3.0,7.0,84,0.00,,,0.00,weatherlink.com 1.10,2013-12-25 06:02:00,
2013-12-25 01:16:00,19.1,15.0,30.51,SSE,167,2.0,7.0,84,0.00,,,0.00,weatherlink.com 1.10,2013-12-25 06:16:00,
2013-12-25 01:31:00,19.3,15.0,30.51,South,175,3.0,8.0,84,0.00,,,0.00,weatherlink.com 1.10,2013-12-25 06:31:00,
2013-12-25 01:47:00,19.4,15.0,30.52,SSW,199,2.0,6.0,84,0.00,,,0.00,weatherlink.com 1.10,2013-12-25 06:47:00,
2013-12-25 02:01:00,19.6,16.0,30.51,South,173,3.0,5.0,84,0.00,,,0.00,weatherlink.com 1.10,2013-12-25 07:01:00,
2013-12-25 02:18:00,19.9,16.0,30.51,South,182,4.0,7.0,84,0.00,,,0.00,weatherlink.com 1.10,2013-12-25 07:18:00,
2013-12-25 02:32:00,20.2,16.0,30.51,South,184,1.0,6.0,84,0.00,,,0.00,weatherlink.com 1.10,2013-12-25 07:32:00,
2013-12-25 02:48:00,20.4,16.0,30.50,South,171,4.0,10.0,83,0.00,,,0.00,weatherlink.com 1.10,2013-12-25 07:48:00,
2013-12-25 03:02:00,20.5,16.0,30.51,South,170,5.0,12.0,81,0.00,,,0.00,weatherlink.com 1.10,2013-12-25 08:02:00,
2013-12-25 03:18:00,20.6,16.0,30.50,SSW,192,5.0,8.0,81,0.00,,,0.00,weatherlink.com 1.10,2013-12-25 08:18:00,
2013-12-25 03:35:00,20.6,16.0,30.50,SSE,163,5.0,11.0,81,0.00,,,0.00,weatherlink.com 1.10,2013-12-25 08:35:00,
2013-12-25 03:49:00,20.7,16.0,30.48,SSE,158,8.0,10.0,81,0.00,,,0.00,weatherlink.com 1.10,2013-12-25 08:49:00,
2013-12-25 04:04:00,20.7,16.0,30.48,South,176,5.0,10.0,81,0.00,,,0.00,weatherlink.com 1.10,2013-12-25 09:04:00,
2013-12-25 04:20:00,20.9,16.0,30.47,South,176,4.0,8.0,81,0.00,,,0.00,weatherlink.com 1.10,2013-12-25 09:20:00,
2013-12-25 04:35:00,20.9,16.0,30.47,SSE,159,6.0,10.0,81,0.00,,,0.00,weatherlink.com 1.10,2013-12-25 09:35:00,
2013-12-25 04:52:00,21.1,16.0,30.46,SE,139,6.0,10.0,81,0.00,,,0.00,weatherlink.com 1.10,2013-12-25 09:52:00,
2013-12-25 05:07:00,21.1,16.0,30.45,South,177,10.0,11.0,81,0.00,,,0.00,weatherlink.com 1.10,2013-12-25 10:07:00,
2013-12-25 05:22:00,21.2,16.0,30.45,SE,144,7.0,9.0,81,0.00,,,0.00,weatherlink.com 1.10,2013-12-25 10:22:00,
2013-12-25 05:36:00,21.3,16.0,30.44,SSW,194,7.0,12.0,81,0.00,,,0.00,weatherlink.com 1.10,2013-12-25 10:36:00,
2013-12-25 05:51:00,21.5,17.0,30.44,SSE,154,6.0,11.0,81,0.00,,,0.00,weatherlink.com 1.10,2013-12-25 10:51:00,
2013-12-25 06:06:00,21.6,17.0,30.43,SSW,194,4.0,14.0,81,0.00,,,0.00,weatherlink.com 1.10,2013-12-25 11:06:00,
2013-12-25 06:21:00,21.6,17.0,30.42,SSE,164,6.0,13.0,81,0.00,,,0.00,weatherlink.com 1.10,2013-12-25 11:21:00,
2013-12-25 06:37:00,21.7,17.0,30.41,South,187,5.0,15.0,81,0.00,,,0.00,weatherlink.com 1.10,2013-12-25 11:37:00,
2013-12-25 06:52:00,21.9,17.0,30.41,SSE,168,5.0,14.0,80,0.00,,,0.00,weatherlink.com 1.10,2013-12-25 11:52:00,
2013-12-25 07:08:00,22.0,17.0,30.42,SSW,197,5.0,13.0,81,0.00,,,0.00,weatherlink.com 1.10,2013-12-25 12:08:00,
2013-12-25 07:22:00,22.2,17.0,30.41,South,175,11.0,13.0,80,0.00,,,0.00,weatherlink.com 1.10,2013-12-25 12:22:00,
2013-12-25 07:37:00,22.5,17.0,30.40,SSE,159,5.0,12.0,80,0.00,,,0.00,weatherlink.com 1.10,2013-12-25 12:37:00,
2013-12-25 07:53:00,22.7,17.0,30.40,SSW,200,2.0,16.0,79,0.00,,,0.00,weatherlink.com 1.10,2013-12-25 12:53:00,
2013-12-25 08:10:00,22.9,17.0,30.39,South,176,5.0,15.0,78,0.00,,,0.00,weatherlink.com 1.10,2013-12-25 13:10:00,
2013-12-25 08:24:00,23.0,17.0,30.39,SW,226,9.0,18.0,77,0.00,,,0.00,weatherlink.com 1.10,2013-12-25 13:24:00,
2013-12-25 08:39:00,23.1,17.0,30.38,SSW,204,12.0,15.0,77,0.00,,,0.00,weatherlink.com 1.10,2013-12-25 13:39:00,
2013-12-25 08:56:00,23.3,17.0,30.39,SSW,206,12.0,15.0,77,0.00,,,0.00,weatherlink.com 1.10,2013-12-25 13:56:00,
2013-12-25 09:10:00,23.4,17.0,30.39,SSE,163,5.0,18.0,77,0.00,,,0.00,weatherlink.com 1.10,2013-12-25 14:10:00,
2013-12-25 09:26:00,23.5,17.0,30.38,SSW,207,11.0,18.0,77,0.00,,,0.00,weatherlink.com 1.10,2013-12-25 14:26:00,
2013-12-25 09:42:00,23.7,18.0,30.38,South,190,5.0,17.0,77,0.00,,,0.00,weatherlink.com 1.10,2013-12-25 14:42:00,
2013-12-25 09:56:00,23.9,18.0,30.38,SSW,205,7.0,17.0,77,0.00,,,0.00,weatherlink.com 1.10,2013-12-25 14:56:00,
2013-12-25 10:11:00,24.1,18.0,30.39,SW,226,11.0,14.0,77,0.00,,,0.00,weatherlink.com 1.10,2013-12-25 15:11:00,
2013-12-25 10:26:00,24.3,18.0,30.38,SSW,198,7.0,13.0,77,0.00,,,0.00,weatherlink.com 1.10,2013-12-25 15:26:00,
2013-12-25 10:42:00,24.4,18.0,30.37,South,187,7.0,15.0,76,0.00,,,0.00,weatherlink.com 1.10,2013-12-25 15:42:00,
2013-12-25 10:57:00,24.5,18.0,30.37,SW,225,9.0,14.0,77,0.00,,,0.00,weatherlink.com 1.10,2013-12-25 15:57:00,
2013-12-25 11:12:00,24.5,19.0,30.37,WSW,238,9.0,16.0,79,0.00,,,0.00,weatherlink.com 1.10,2013-12-25 16:12:00,
2013-12-25 11:27:00,24.6,19.0,30.37,SSW,195,5.0,14.0,80,0.00,,,0.00,weatherlink.com 1.10,2013-12-25 16:27:00,
2013-12-25 11:44:00,24.9,19.0,30.35,SSW,210,8.0,14.0,78,0.00,,,0.00,weatherlink.com 1.10,2013-12-25 16:44:00,
2013-12-25 11:57:00,25.1,19.0,30.34,SSW,211,5.0,19.0,77,0.00,,,0.00,weatherlink.com 1.10,2013-12-25 16:57:00,
2013-12-25 12:13:00,25.2,19.0,30.33,SW,214,5.0,18.0,77,0.00,,,0.00,weatherlink.com 1.10,2013-12-25 17:13:00,
2013-12-25 12:29:00,25.1,19.0,30.33,SW,225,13.0,17.0,78,0.00,,,0.00,weatherlink.com 1.10,2013-12-25 17:29:00,
2013-12-25 12:44:00,25.1,20.0,30.32,SW,214,7.0,14.0,80,0.00,,,0.00,weatherlink.com 1.10,2013-12-25 17:44:00,
2013-12-25 12:59:00,25.1,20.0,30.31,SW,231,5.0,14.0,80,0.00,,,0.00,weatherlink.com 1.10,2013-12-25 17:59:00,
2013-12-25 13:14:00,25.2,20.0,30.30,SSW,194,5.0,15.0,80,0.00,,,0.00,weatherlink.com 1.10,2013-12-25 18:14:00,
2013-12-25 13:30:00,25.3,20.0,30.30,SSW,203,9.0,16.0,80,0.00,,,0.00,weatherlink.com 1.10,2013-12-25 18:30:00,
2013-12-25 13:45:00,25.4,20.0,30.29,WSW,244,5.0,14.0,81,0.00,,,0.00,weatherlink.com 1.10,2013-12-25 18:45:00,
2013-12-25 14:00:00,25.8,21.0,30.29,SSW,193,8.0,13.0,81,0.00,,,0.00,weatherlink.com 1.10,2013-12-25 19:00:00,
2013-12-25 14:16:00,26.0,21.0,30.28,SSW,202,6.0,16.0,80,0.00,,,0.00,weatherlink.com 1.10,2013-12-25 19:16:00,
2013-12-25 14:31:00,26.2,21.0,30.27,WSW,255,6.0,13.0,80,0.00,,,0.00,weatherlink.com 1.10,2013-12-25 19:31:00,
2013-12-25 14:46:00,26.4,21.0,30.27,SSW,206,7.0,15.0,80,0.00,,,0.00,weatherlink.com 1.10,2013-12-25 19:46:00,
2013-12-25 15:01:00,26.5,21.0,30.27,SW,226,8.0,14.0,80,0.00,,,0.00,weatherlink.com 1.10,2013-12-25 20:01:00,
2013-12-25 15:17:00,26.7,21.0,30.27,SW,217,7.0,12.0,80,0.00,,,0.00,weatherlink.com 1.10,2013-12-25 20:17:00,
2013-12-25 15:31:00,26.8,21.0,30.27,WSW,244,7.0,15.0,80,0.00,,,0.00,weatherlink.com 1.10,2013-12-25 20:31:00,
2013-12-25 15:46:00,26.9,22.0,30.27,WSW,245,7.0,10.0,80,0.00,,,0.00,weatherlink.com 1.10,2013-12-25 20:46:00,
2013-12-25 16:04:00,27.0,22.0,30.27,WSW,242,8.0,9.0,80,0.00,,,0.00,weatherlink.com 1.10,2013-12-25 21:04:00,
2013-12-25 16:18:00,27.0,22.0,30.27,SSW,212,5.0,10.0,80,0.00,,,0.00,weatherlink.com 1.10,2013-12-25 21:18:00,
2013-12-25 16:32:00,27.0,22.0,30.27,WSW,248,6.0,13.0,81,0.00,,,0.00,weatherlink.com 1.10,2013-12-25 21:32:00,
2013-12-25 16:48:00,27.0,22.0,30.27,SW,215,6.0,11.0,81,0.00,,,0.00,weatherlink.com 1.10,2013-12-25 21:48:00,
2013-12-25 17:05:00,27.0,22.0,30.27,SSW,205,6.0,12.0,81,0.00,,,0.00,weatherlink.com 1.10,2013-12-25 22:05:00,
2013-12-25 17:18:00,27.0,22.0,30.27,SSW,211,5.0,10.0,81,0.00,,,0.00,weatherlink.com 1.10,2013-12-25 22:18:00,
2013-12-25 17:33:00,27.1,22.0,30.27,SSW,194,7.0,8.0,81,0.00,,,0.00,weatherlink.com 1.10,2013-12-25 22:33:00,
2013-12-25 17:49:00,27.1,22.0,30.27,South,190,4.0,12.0,81,0.00,,,0.00,weatherlink.com 1.10,2013-12-25 22:49:00,
2013-12-25 18:04:00,27.1,22.0,30.26,SW,228,6.0,10.0,81,0.00,,,0.00,weatherlink.com 1.10,2013-12-25 23:04:00,
2013-12-25 18:20:00,27.0,22.0,30.26,South,186,4.0,9.0,82,0.00,,,0.00,weatherlink.com 1.10,2013-12-25 23:20:00,
2013-12-25 18:35:00,27.1,22.0,30.26,SW,223,4.0,8.0,82,0.00,,,0.00,weatherlink.com 1.10,2013-12-25 23:35:00,
2013-12-25 18:51:00,27.1,22.0,30.26,WSW,245,2.0,8.0,82,0.00,,,0.00,weatherlink.com 1.10,2013-12-25 23:51:00,
2013-12-25 19:06:00,27.2,22.0,30.26,SSW,200,4.0,10.0,82,0.00,,,0.00,weatherlink.com 1.10,2013-12-26 00:06:00,
2013-12-25 19:21:00,27.2,22.0,30.25,South,186,4.0,9.0,82,0.00,,,0.00,weatherlink.com 1.10,2013-12-26 00:21:00,
2013-12-25 19:36:00,27.3,23.0,30.26,SW,218,10.0,10.0,82,0.00,,,0.00,weatherlink.com 1.10,2013-12-26 00:36:00,
2013-12-25 19:52:00,27.4,23.0,30.25,SSW,192,4.0,13.0,82,0.00,,,0.00,weatherlink.com 1.10,2013-12-26 00:52:00,
2013-12-25 20:06:00,27.3,23.0,30.25,South,182,3.0,12.0,82,0.00,,,0.00,weatherlink.com 1.10,2013-12-26 01:06:00,
2013-12-25 20:21:00,27.4,23.0,30.25,SSW,205,5.0,8.0,83,0.00,,,0.00,weatherlink.com 1.10,2013-12-26 01:21:00,
2013-12-25 20:37:00,27.4,23.0,30.24,South,180,6.0,10.0,84,0.00,,,0.00,weatherlink.com 1.10,2013-12-26 01:37:00,
2013-12-25 20:51:00,27.4,23.0,30.24,SW,225,5.0,12.0,84,0.00,,,0.00,weatherlink.com 1.10,2013-12-26 01:51:00,
2013-12-25 21:07:00,27.4,24.0,30.23,SSW,207,2.0,10.0,85,0.00,,,0.00,weatherlink.com 1.10,2013-12-26 02:07:00,
2013-12-25 21:22:00,27.4,24.0,30.23,SW,219,5.0,10.0,85,0.00,,,0.00,weatherlink.com 1.10,2013-12-26 02:22:00,
2013-12-25 21:39:00,27.4,24.0,30.23,SW,219,5.0,10.0,86,0.00,,,0.00,weatherlink.com 1.10,2013-12-26 02:39:00,
2013-12-25 21:54:00,27.5,24.0,30.22,SSW,209,3.0,10.0,86,0.00,,,0.00,weatherlink.com 1.10,2013-12-26 02:54:00,
2013-12-25 22:08:00,27.5,24.0,30.22,SW,224,7.0,11.0,87,0.00,,,0.00,weatherlink.com 1.10,2013-12-26 03:08:00,
2013-12-25 22:27:00,27.6,25.0,30.21,SW,217,7.0,10.0,88,0.00,,,0.00,weatherlink.com 1.10,2013-12-26 03:27:00,
2013-12-25 22:40:00,27.7,25.0,30.21,SSW,211,7.0,9.0,88,0.00,,,0.00,weatherlink.com 1.10,2013-12-26 03:40:00,
2013-12-25 22:53:00,27.8,25.0,30.20,SSW,213,4.0,12.0,88,0.00,,,0.00,weatherlink.com 1.10,2013-12-26 03:53:00,
2013-12-25 23:08:00,27.9,25.0,30.20,SSW,207,7.0,11.0,88,0.00,,,0.00,weatherlink.com 1.10,2013-12-26 04:08:00,
2013-12-25 23:24:00,28.1,25.0,30.19,SW,228,6.0,9.0,88,0.00,,,0.00,weatherlink.com 1.10,2013-12-26 04:24:00,
2013-12-25 23:39:00,28.2,25.0,30.18,WSW,247,5.0,13.0,88,0.00,,,0.00,weatherlink.com 1.10,2013-12-26 04:39:00,
2013-12-25 23:55:00,28.3,26.0,30.18,WSW,238,6.0,12.0,89,0.00,,,0.00,weatherlink.com 1.10,2013-12-26 04:55:00,